Regional Weather Roundup
Issued by NWS Upton, NY

Current Version | Previous Version | Text Only | Print | Product List | Glossary On
Versions: 1 2 3 4 5 6 7 8 9 10 11 12 13 14 15 16 17 18 19 20 21 22 23 24 25 26 27 28 29 30 31 32 33 34 35 36 37 38 39 40 41 42 43 44 45 46 47 48 49 50
000
ASUS41 KOKX 270504
RWROKX

REGIONAL WEATHER ROUNDUP
NATIONAL WEATHER SERVICE NEW YORK NY
100 AM EDT THU AUG 27 2015

NOTE: "FAIR" INDICATES FEW OR NO CLOUDS BELOW 12,000 FEET WITH NO
SIGNIFICANT WEATHER AND/OR OBSTRUCTIONS TO VISIBILITY.

NYZ071-072-176-178-NJZ106-104-270600-
NEW YORK CITY METRO AREA


CITY           SKY/WX    TMP DP  RH WIND       PRES   REMARKS
CENTRAL PARK   PTCLDY    72  54  53 NW3       30.05R
LAGUARDIA APRT PTCLDY    73  55  53 NW10      30.01S
KENNEDY INTL   FAIR      73  53  49 NW9       30.02S
NEWARK/LIBERTY PTCLDY    70  55  59 NW7       30.02S
BRNX BOT. GARD   N/A     70  54  56 N10       30.02S
TETERBORO      CLOUDY    70  54  56 NW7       30.01S
$$

NYZ177-179-078>081-270600-
LONG ISLAND NEW YORK

CITY           SKY/WX    TMP DP  RH WIND       PRES   REMARKS
FARMINGDALE    CLEAR     70  56  61 NW7       30.01S
ISLIP          CLEAR     66  57  72 NW7       29.99S
SHIRLEY        CLEAR     64  58  80 NW3       30.00S
WESTHAMPTON    PTCLDY    59  55  87 N5        30.01S
MONTAUK POINT    N/A     71  59  65 CALM      30.00S
$$

NYZ052-065-067-270600-
HUDSON VALLEY

CITY           SKY/WX    TMP DP  RH WIND       PRES   REMARKS
WHITE PLAINS   MOCLDY    68  54  60 NW8       30.02S
NEWBURGH       PTCLDY    61  57  88 CALM      30.05R
MONTGOMERY     CLOUDY    59  57  93 SW3       30.04R
POUGHKEEPSIE   CLEAR     60  56  86 CALM      30.02R
ALBANY         CLOUDY    67  54  63 W5        30.02S
$$

NJZ001-105-106-008-010-013-015-019>022-104-270600-
NEW JERSEY

CITY           SKY/WX    TMP DP  RH WIND       PRES   REMARKS
NEWARK/LIBERTY PTCLDY    70  55  59 NW7       30.02S
TETERBORO      CLOUDY    70  54  56 NW7       30.01S
CALDWELL       CLEAR     67  54  63 CALM      30.04R
MORRISTOWN     CLEAR     57  52  82 CALM      30.04R
SOMERVILLE     CLEAR     60  56  86 CALM      30.03R
SUSSEX         CLEAR     57  54  89 CALM      30.05S
ANDOVER          N/A     57  56  96 CALM      30.06S
TRENTON        CLEAR     65  55  70 NW5       30.04S
MILLVILLE      CLEAR     58  55  90 W6        30.06S
ATLANTIC CITY  CLEAR     63  55  75 NW7       30.05S
WRIGHTSTOWN    CLEAR     65  56  73 NW7       30.02S
TOMS RIVER     CLEAR     63  54  72 W5        30.04S
BELMAR         CLEAR     64  52  63 W5        30.03S
$$

PAZ047>061-062-071-270600-
EASTERN PENNSYLVANIA

CITY           SKY/WX    TMP DP  RH WIND       PRES   REMARKS
PHILADELPHIA   CLEAR     70  53  54 NW8       30.07S
ALLENTOWN      CLEAR     59  54  83 SW5       30.06S
SCRANTON       CLOUDY    64  56  75 W5        30.07S
$$

CTZ002-004>006-009-010-012-RIZ004-006-007-MAZ004-011-015-270600-
SOUTHERN NEW ENGLAND
 IN CT

CITY           SKY/WX    TMP DP  RH WIND       PRES   REMARKS
BRADLEY INTL   PTCLDY    62  54  74 CALM      30.00R
HARTFORD       CLEAR     64  59  83 CALM      30.00S
DANBURY        CLEAR     58  54  86 SW5       30.04S
WTRBRY/OXFORD  CLEAR     59  52  77 NW5       30.04S
BRIDGEPORT     CLEAR     68  56  65 NW5       30.00S
MERIDEN        CLEAR     61  56  83 CALM      30.01R
NEW HAVEN      CLEAR     62  57  83 CALM      30.01R
CHESTER        NOT AVBL
GROTON         CLEAR     65  56  72 N6        29.98S
WILLIMANTIC    CLEAR     60  55  83 CALM      30.00S

 IN RI

CITY           SKY/WX    TMP DP  RH WIND       PRES   REMARKS
PROVIDENCE     CLEAR     67  55  65 W5        29.98S
BLOCK ISLAND   CLEAR     68  59  73 NW5       29.99S
WESTERLY       CLEAR     66  55  67 NW3       29.99R

 IN MA

CITY           SKY/WX    TMP DP  RH WIND       PRES   REMARKS
BOSTON         CLEAR     71  56  58 W10       29.95S
WORCESTER      CLEAR     61  53  75 W10       30.00S
WESTFIELD      CLEAR     59  54  83 NE5       30.00S
PROVINCETOWN   PTCLDY    72  57  60 W12       29.93S
NANTUCKET      CLEAR     69  63  81 W8        29.94F
$$

ANZ330-335-338-340-345-350-353-355-270600-
COASTAL MARINE OBSERVATIONS


STATION/POSITION TIME  SKY/WX   TEMP    WIND        PRES    VSBY  WAVE
                                AIR SEA DIR/SP/G                  HT/PER
                 (UTC)          (F)     (DEG/KT/KT) (MB)    (MI)  (FT/S)
NY HARB ENTRANCE 0350            75 76  310/ 12/ 14 1015.8          2/10
4S FIRE IS       NOT AVBL
20S FIRE ISLAND  0350            75 75  290/ 10/ 14 1015.7          2/10
GREAT SOUTH BAY  NOT AVBL
23SW MTP         0450            75 74  290/ 14/ 16 1014.6          3/ 5
HUDSON CANYON    NOT AVBL
KINGS POINT      0400            73 74   10/  5/  6   N/A
EXECUTION ROCKS  0400            73     300/  8/ 10   N/A
CENTRAL LI SOUND NOT AVBL
EASTERN LI SOUND 0400            70 71  320/  8/ 10   N/A
ROBBINS REEF     0400            73     290/  9/ 11   N/A
$$


>>>>>>>>>>>>>>>>>>>>>>>>>>>> KEY <<<<<<<<<<<<<<<<<<<<<<<<<<<
>                                                          <
>     SKY/WX - SKY CONDITION/PRESENT WEATHER               <
>     TMP    - TEMPERATURE IN FAHRENHEIT                   <
>     DP     - DEWPOINT IN FAHRENHEIT                      <
>     RH     - RELATIVE HUMIDITY IN PERCENT                <
>     WIND   - DIRECTION AND SPEED IN MPH                  <
>     PRES   - MEAN SEA LEVEL PRESSURE IN INCHES OF HG     <
>     WCI    - WIND CHILL INDEX                            <
>     VSB    - VISIBILITY IN MILES                         <
>     HX     - HEAT INDEX                                  <
>     TC     - TEMPERATURE IN CELSIUS                      <
>     VRB    - VARIABLE WIND DIRECTION                     <
>                                                          <
>>>>>>>>>>>>>>>>>>>>>>>>>>>> KEY <<<<<<<<<<<<<<<<<<<<<<<<<<<




USA.gov is the U.S. government's official web portal to all federal, state and local government web resources and services.